DLH423 KBOS-EDDF

Flight info

Callsign DLH423
Flight time N/A
Altitude 37000
Route LBSTA8 LBSTA DCT TAFFY N741B LOMSI/M079F390 DCT 55N050W 56N040W 57N030W 57N020W DCT PIKIL DCT SOVED/N0456F390 DCT LUTOV DCT BELOX L603 DOLAS DCT NAVPI DCT NOLRU DCT DIXAT DIXAT1A
Aircraft A343/H-SDE2E3FGHIJ4J5M1RWXY/LB1D1

Departure

Time 2026-05-07 09:08
Airport Boston Logan International Airport (KBOS)

Arrival

Time N/A
Airport Frankfurt Main Airport (EDDF)
Time Latitude Longitude Altitude Speed Heading
2026-05-07 08:50 42.37154 -71.02075 30 ft 0 kts 168°
2026-05-07 09:00 42.37161 -71.02077 30 ft 2 kts 165°
2026-05-07 09:00 42.37176 -71.02083 30 ft 2 kts 181°
2026-05-07 09:01 42.37193 -71.02085 29 ft 2 kts 121°
2026-05-07 09:01 42.37200 -71.02105 29 ft 2 kts 95°
2026-05-07 09:01 42.37200 -71.02127 29 ft 2 kts 82°
2026-05-07 09:01 42.37200 -71.02129 29 ft 0 kts 70°
2026-05-07 09:05 42.37204 -71.02117 29 ft 5 kts 70°
2026-05-07 09:05 42.37221 -71.02037 32 ft 13 kts 77°
2026-05-07 09:05 42.37284 -71.01904 33 ft 20 kts 33°
2026-05-07 09:06 42.37376 -71.01828 32 ft 7 kts 46°
2026-05-07 09:06 42.37399 -71.01784 33 ft 3 kts 70°
2026-05-07 09:06 42.37399 -71.01769 33 ft 1 kts 89°
2026-05-07 09:06 42.37396 -71.01756 34 ft 1 kts 110°
2026-05-07 09:07 42.37354 -71.01672 33 ft 29 kts 124°
2026-05-07 09:07 42.37255 -71.01543 34 ft 31 kts 140°
2026-05-07 09:07 42.36955 -71.01158 29 ft 86 kts 134°
2026-05-07 09:07 42.36421 -71.00438 32 ft 131 kts 135°
2026-05-07 09:08 42.35673 -70.99463 97 ft 162 kts 137°
2026-05-07 09:08 42.34879 -70.98363 527 ft 165 kts 136°
2026-05-07 09:08 42.34271 -70.97022 973 ft 172 kts 112°
2026-05-07 09:08 42.33920 -70.95400 1265 ft 194 kts 111°
2026-05-07 09:09 42.33544 -70.93515 1452 ft 223 kts 111°
2026-05-07 09:09 42.33092 -70.91372 1753 ft 249 kts 110°
2026-05-07 09:09 42.32603 -70.89035 2261 ft 267 kts 109°
2026-05-07 09:09 42.32289 -70.86487 2832 ft 283 kts 87°
2026-05-07 09:10 42.32633 -70.83854 3680 ft 286 kts 77°
2026-05-07 09:10 42.33121 -70.81204 4356 ft 297 kts 76°
2026-05-07 09:10 42.33645 -70.78502 5074 ft 302 kts 73°
2026-05-07 09:10 42.34623 -70.76003 5880 ft 302 kts 45°
2026-05-07 09:11 42.36323 -70.74432 6595 ft 296 kts 15°
2026-05-07 09:11 42.38275 -70.73553 7341 ft 297 kts 10°
2026-05-07 09:11 42.40267 -70.72764 8118 ft 299 kts 11°
2026-05-07 09:11 42.42271 -70.71960 8846 ft 302 kts 11°
2026-05-07 09:12 42.44298 -70.71131 9572 ft 306 kts 11°
2026-05-07 09:12 42.46366 -70.70342 10114 ft 314 kts
2026-05-07 09:12 42.48562 -70.69710 10387 ft 331 kts
2026-05-07 09:12 42.50879 -70.69068 10658 ft 347 kts
2026-05-07 09:13 42.53299 -70.68380 10920 ft 363 kts
2026-05-07 09:13 42.55820 -70.67642 11294 ft 375 kts
2026-05-07 09:13 42.58389 -70.66879 11834 ft 381 kts
2026-05-07 09:13 42.60957 -70.66108 12399 ft 386 kts
2026-05-07 09:14 42.63595 -70.65312 12954 ft 391 kts
2026-05-07 09:14 42.66277 -70.64503 13508 ft 397 kts
2026-05-07 09:14 42.68990 -70.63700 14039 ft 401 kts
2026-05-07 09:14 42.71755 -70.63069 14575 ft 403 kts
2026-05-07 09:15 42.74542 -70.62496 15101 ft 408 kts
2026-05-07 09:15 42.77367 -70.61903 15662 ft 413 kts
2026-05-07 09:15 42.80198 -70.61010 16185 ft 424 kts 13°
2026-05-07 09:15 42.82986 -70.59556 16715 ft 432 kts 18°
2026-05-07 09:16 42.85738 -70.57846 17225 ft 439 kts 20°
2026-05-07 09:16 42.88497 -70.55989 17730 ft 445 kts 22°
2026-05-07 09:16 42.91269 -70.54071 18224 ft 449 kts 22°
2026-05-07 09:16 42.94073 -70.52130 18681 ft 453 kts 22°
2026-05-07 09:17 42.96893 -70.50196 19210 ft 455 kts 21°
2026-05-07 09:17 42.99737 -70.48268 19712 ft 457 kts 21°
2026-05-07 09:17 43.02599 -70.46343 20194 ft 460 kts 21°
2026-05-07 09:17 43.05481 -70.44415 20668 ft 462 kts 21°
2026-05-07 09:18 43.08350 -70.42499 21128 ft 465 kts 21°
2026-05-07 09:18 43.11279 -70.40543 21586 ft 469 kts 21°
2026-05-07 09:18 43.14216 -70.38580 22040 ft 471 kts 21°
2026-05-07 09:18 43.17167 -70.36603 22490 ft 474 kts 21°
2026-05-07 09:19 43.19136 -70.35282 22783 ft 476 kts 21°
2026-05-07 09:19 43.22116 -70.33281 23214 ft 479 kts 21°
2026-05-07 09:19 43.25155 -70.31238 23585 ft 482 kts 21°
2026-05-07 09:19 43.28180 -70.29202 23945 ft 485 kts 21°
2026-05-07 09:20 43.31174 -70.27185 24246 ft 488 kts 20°
2026-05-07 09:20 43.34235 -70.25120 24573 ft 491 kts 20°
2026-05-07 09:20 43.37309 -70.23044 24918 ft 493 kts 20°
2026-05-07 09:20 43.40391 -70.20959 25251 ft 496 kts 20°
2026-05-07 09:21 43.43499 -70.18855 25583 ft 498 kts 19°
2026-05-07 09:21 43.46618 -70.16741 25930 ft 501 kts 20°
2026-05-07 09:21 43.49748 -70.14617 26246 ft 503 kts 20°
2026-05-07 09:21 43.52901 -70.12475 26575 ft 505 kts 19°
2026-05-07 09:22 43.56058 -70.10326 26904 ft 507 kts 19°
2026-05-07 09:22 43.59225 -70.08170 27198 ft 509 kts 19°
2026-05-07 09:22 43.62406 -70.06001 27530 ft 511 kts 19°
2026-05-07 09:22 43.65601 -70.03820 27872 ft 512 kts 19°
2026-05-07 09:23 43.68802 -70.01631 28206 ft 514 kts 19°
2026-05-07 09:23 43.72011 -69.99435 28470 ft 516 kts 19°
2026-05-07 09:23 43.75190 -69.97258 28752 ft 518 kts 19°
2026-05-07 09:23 43.78428 -69.95037 29030 ft 520 kts 19°
2026-05-07 09:24 43.81670 -69.92811 29335 ft 522 kts 20°
2026-05-07 09:24 43.84939 -69.90563 29581 ft 524 kts 19°
2026-05-07 09:24 43.88208 -69.88313 29834 ft 526 kts 19°
2026-05-07 09:24 43.91491 -69.86049 30077 ft 528 kts 19°
2026-05-07 09:25 43.94787 -69.83774 30290 ft 529 kts 19°
2026-05-07 09:25 43.98097 -69.81487 30477 ft 532 kts 20°
2026-05-07 09:25 44.01419 -69.79189 30695 ft 534 kts 20°
2026-05-07 09:25 44.04746 -69.76884 30903 ft 535 kts 20°
2026-05-07 09:26 44.08084 -69.74567 31135 ft 536 kts 20°
2026-05-07 09:26 44.11419 -69.72249 31407 ft 536 kts 20°
2026-05-07 09:26 44.14711 -69.69958 31704 ft 535 kts 20°
2026-05-07 09:26 44.18036 -69.67641 31999 ft 534 kts 20°
2026-05-07 09:27 44.21358 -69.65323 32292 ft 533 kts 20°
2026-05-07 09:27 44.24677 -69.63006 32554 ft 533 kts 20°
2026-05-07 09:27 44.31304 -69.58372 33125 ft 532 kts 19°
2026-05-07 09:28 44.34606 -69.56057 33496 ft 529 kts 20°
2026-05-07 09:28 44.37882 -69.53756 33813 ft 526 kts 20°
2026-05-07 09:28 44.41148 -69.51461 34034 ft 526 kts 20°
2026-05-07 09:29 44.41187 -69.51434 34033 ft 526 kts 20°
2026-05-07 09:29 44.43047 -69.50126 34140 ft 526 kts 20°
2026-05-07 09:29 44.46326 -69.47820 34344 ft 526 kts 20°
2026-05-07 09:29 44.49590 -69.45520 34573 ft 525 kts 20°
2026-05-07 09:30 44.52845 -69.43223 34835 ft 523 kts 20°
2026-05-07 09:30 44.56045 -69.40961 35062 ft 522 kts 20°
2026-05-07 09:30 44.59287 -69.38668 35235 ft 521 kts 20°
2026-05-07 09:30 44.62531 -69.36371 35408 ft 521 kts 20°
2026-05-07 09:31 44.65777 -69.34070 35587 ft 521 kts 20°
2026-05-07 09:31 44.69004 -69.31779 35782 ft 520 kts 21°
2026-05-07 09:31 44.72236 -69.29481 35982 ft 519 kts 21°
2026-05-07 09:31 44.75465 -69.27182 36156 ft 519 kts 21°
2026-05-07 09:32 44.78685 -69.24887 36312 ft 519 kts 21°
2026-05-07 09:32 44.81904 -69.22590 36456 ft 519 kts 21°
2026-05-07 09:32 44.85127 -69.20288 36612 ft 519 kts 21°
2026-05-07 09:32 44.88346 -69.17985 36742 ft 519 kts 21°
2026-05-07 09:33 44.91574 -69.15673 36769 ft 520 kts 21°
2026-05-07 09:33 44.97966 -69.11083 36769 ft 517 kts 21°
2026-05-07 09:34 45.04376 -69.06471 36779 ft 517 kts 21°
2026-05-07 09:34 45.10780 -69.01852 36767 ft 516 kts 21°
2026-05-07 09:35 45.17180 -68.97224 36769 ft 516 kts 21°
2026-05-07 09:35 45.23585 -68.92581 36771 ft 516 kts 21°
2026-05-07 09:36 45.29981 -68.87932 36768 ft 516 kts 21°
2026-05-07 09:36 45.36340 -68.83298 36760 ft 517 kts 21°
2026-05-07 09:37 45.42747 -68.78617 36766 ft 517 kts 22°
2026-05-07 09:37 45.49140 -68.73934 36759 ft 517 kts 22°
2026-05-07 09:38 45.55542 -68.69232 36760 ft 517 kts 22°
2026-05-07 09:38 45.61950 -68.64515 36758 ft 517 kts 22°
2026-05-07 09:39 45.68305 -68.59824 36760 ft 517 kts 22°
2026-05-07 09:39 45.74702 -68.55089 36766 ft 517 kts 22°
2026-05-07 09:40 45.81102 -68.50340 36765 ft 518 kts 22°
2026-05-07 09:40 45.87501 -68.45580 36763 ft 518 kts 22°
2026-05-07 09:41 45.93901 -68.40806 36775 ft 518 kts 23°
2026-05-07 09:41 46.00255 -68.36054 36760 ft 518 kts 23°
2026-05-07 09:42 46.06648 -68.31261 36762 ft 518 kts 23°
2026-05-07 09:42 46.13042 -68.26455 36773 ft 518 kts 23°
2026-05-07 09:43 46.19438 -68.21634 36752 ft 519 kts 23°
2026-05-07 09:43 46.25835 -68.16799 36749 ft 519 kts 23°
2026-05-07 09:44 46.32225 -68.11957 36762 ft 519 kts 24°
2026-05-07 09:44 46.38621 -68.07098 36745 ft 519 kts 24°
2026-05-07 09:45 46.45020 -68.02222 36735 ft 519 kts 24°
2026-05-07 09:45 46.51370 -67.97372 36742 ft 519 kts 24°
2026-05-07 09:46 46.57775 -67.92467 36738 ft 519 kts 24°
2026-05-07 09:46 46.64170 -67.87556 36729 ft 519 kts 24°
2026-05-07 09:47 46.70554 -67.82639 36732 ft 519 kts 24°
2026-05-07 09:47 46.76940 -67.77709 36714 ft 519 kts 24°
2026-05-07 09:48 46.83321 -67.72769 36722 ft 519 kts 24°
2026-05-07 09:48 46.89663 -67.67847 36750 ft 519 kts 25°
2026-05-07 09:49 46.96033 -67.62888 36721 ft 518 kts 25°
2026-05-07 09:49 47.02389 -67.57927 36727 ft 518 kts 25°
2026-05-07 09:50 47.08742 -67.52955 36733 ft 517 kts 25°
2026-05-07 09:50 47.15099 -67.47967 36726 ft 517 kts 25°
2026-05-07 09:51 47.21449 -67.42971 36719 ft 517 kts 25°
2026-05-07 09:51 47.27793 -67.37964 36719 ft 517 kts 25°
2026-05-07 09:52 47.34089 -67.32978 36715 ft 517 kts 26°
2026-05-07 09:52 47.37118 -67.30070 36712 ft 520 kts 37°
2026-05-07 09:52 47.39830 -67.26543 36715 ft 520 kts 42°
2026-05-07 09:53 47.44986 -67.19001 36712 ft 521 kts 45°
2026-05-07 09:53 47.50023 -67.11286 36702 ft 520 kts 46°
2026-05-07 09:54 47.55048 -67.03558 36698 ft 520 kts 46°
2026-05-07 09:54 47.60046 -66.95898 36691 ft 520 kts 45°
2026-05-07 09:55 47.65078 -66.88187 36684 ft 519 kts 46°
2026-05-07 09:55 47.70095 -66.80480 36680 ft 519 kts 46°
2026-05-07 09:56 47.75112 -66.72749 36672 ft 519 kts 46°
2026-05-07 09:56 47.80126 -66.64998 36672 ft 519 kts 46°
2026-05-07 09:57 47.85121 -66.57252 36664 ft 519 kts 46°
2026-05-07 09:57 47.90081 -66.49540 36650 ft 519 kts 46°
2026-05-07 09:58 47.95077 -66.41748 36640 ft 519 kts 46°
2026-05-07 09:58 48.00062 -66.33949 36642 ft 519 kts 47°
2026-05-07 09:59 48.05043 -66.26132 36643 ft 519 kts 47°
2026-05-07 09:59 48.10013 -66.18311 36651 ft 518 kts 47°
2026-05-07 10:00 48.14982 -66.10466 36655 ft 518 kts 47°
2026-05-07 10:00 48.19933 -66.02628 36655 ft 518 kts 47°
2026-05-07 10:01 48.24851 -65.94818 36648 ft 518 kts 47°
2026-05-07 10:01 48.29783 -65.86961 36639 ft 517 kts 48°
2026-05-07 10:02 48.34713 -65.79084 36642 ft 517 kts 48°
2026-05-07 10:02 48.39631 -65.71203 36640 ft 516 kts 48°
2026-05-07 10:03 48.44549 -65.63298 36616 ft 517 kts 48°
2026-05-07 10:03 48.49456 -65.55385 36615 ft 517 kts 48°
2026-05-07 10:04 48.54361 -65.47453 36570 ft 516 kts 48°
2026-05-07 10:04 48.59256 -65.39514 36620 ft 516 kts 48°
2026-05-07 10:05 48.64115 -65.31608 36608 ft 516 kts 49°
2026-05-07 10:05 48.68998 -65.23639 36610 ft 516 kts 49°
2026-05-07 10:06 48.73872 -65.15659 36619 ft 516 kts 49°
2026-05-07 10:06 48.78739 -65.07668 36645 ft 516 kts 49°
2026-05-07 10:07 48.83605 -64.99653 36640 ft 516 kts 50°
2026-05-07 10:07 48.87636 -64.92994 36641 ft 515 kts 50°
2026-05-07 10:08 48.92490 -64.84954 36627 ft 515 kts 50°
2026-05-07 10:08 48.97334 -64.76904 36638 ft 516 kts 50°
2026-05-07 10:09 49.02177 -64.68833 36623 ft 515 kts 50°
2026-05-07 10:09 49.07000 -64.60769 36634 ft 515 kts 50°
2026-05-07 10:10 49.11793 -64.52729 36640 ft 515 kts 50°
2026-05-07 10:10 49.16616 -64.44615 36635 ft 515 kts 50°
2026-05-07 10:11 49.21427 -64.36496 36636 ft 515 kts 50°
2026-05-07 10:11 49.26229 -64.28366 36633 ft 516 kts 50°
2026-05-07 10:12 49.31042 -64.20192 36635 ft 517 kts 50°
2026-05-07 10:12 49.35847 -64.12005 36635 ft 516 kts 50°
2026-05-07 10:13 49.40617 -64.03853 36633 ft 516 kts 50°
2026-05-07 10:13 49.45409 -63.95638 36631 ft 516 kts 50°
2026-05-07 10:14 49.50193 -63.87409 36636 ft 516 kts 50°
2026-05-07 10:14 49.54981 -63.79147 36637 ft 517 kts 50°
2026-05-07 10:15 49.59766 -63.70865 36635 ft 517 kts 50°
2026-05-07 10:15 49.64546 -63.62565 36630 ft 517 kts 50°
2026-05-07 10:16 49.69283 -63.54314 36634 ft 517 kts 50°
2026-05-07 10:16 49.74062 -63.45962 36633 ft 519 kts 50°
2026-05-07 10:17 49.78837 -63.37590 36638 ft 519 kts 51°
2026-05-07 10:17 49.83611 -63.29195 36635 ft 519 kts 51°
2026-05-07 10:18 49.88381 -63.20776 36634 ft 521 kts 51°
2026-05-07 10:18 49.93172 -63.12292 36627 ft 523 kts 51°
2026-05-07 10:19 49.97929 -63.03844 36640 ft 523 kts 51°
2026-05-07 10:19 50.02718 -62.95310 36647 ft 523 kts 51°
2026-05-07 10:20 50.07505 -62.86751 36644 ft 525 kts 51°
2026-05-07 10:20 50.12299 -62.78151 36651 ft 525 kts 51°
2026-05-07 10:21 50.17083 -62.69542 36662 ft 525 kts 51°
2026-05-07 10:21 50.21863 -62.60910 36662 ft 525 kts 51°
2026-05-07 10:22 50.26609 -62.52310 36671 ft 525 kts 51°
2026-05-07 10:22 50.31375 -62.43645 36671 ft 525 kts 51°
2026-05-07 10:23 50.36137 -62.34959 36679 ft 525 kts 51°
2026-05-07 10:23 50.40897 -62.26248 36691 ft 526 kts 51°
2026-05-07 10:24 50.45641 -62.17534 36696 ft 527 kts 51°
2026-05-07 10:24 50.50398 -62.08770 36699 ft 527 kts 51°
2026-05-07 10:25 50.55157 -61.99972 36703 ft 527 kts 51°
2026-05-07 10:25 50.59900 -61.91171 36712 ft 527 kts 51°
2026-05-07 10:26 50.64635 -61.82356 36723 ft 527 kts 51°
2026-05-07 10:26 50.69361 -61.73529 36727 ft 527 kts 51°
2026-05-07 10:27 50.74055 -61.64730 36726 ft 527 kts 51°
2026-05-07 10:27 50.78762 -61.55876 36732 ft 526 kts 51°
2026-05-07 10:28 50.83457 -61.47017 36742 ft 526 kts 51°
2026-05-07 10:28 50.88145 -61.38137 36757 ft 525 kts 51°
2026-05-07 10:29 50.92829 -61.29237 36752 ft 525 kts 51°
2026-05-07 10:29 50.97499 -61.20330 36763 ft 525 kts 52°
2026-05-07 10:30 51.04491 -61.06939 36761 ft 525 kts 52°
2026-05-07 10:30 51.09147 -60.97982 36759 ft 525 kts 52°
2026-05-07 10:31 51.13758 -60.89083 36771 ft 524 kts 52°
2026-05-07 10:31 51.18394 -60.80103 36772 ft 524 kts 52°
2026-05-07 10:32 51.23014 -60.71123 36779 ft 524 kts 52°
2026-05-07 10:32 51.27626 -60.62126 36721 ft 523 kts 52°
2026-05-07 10:33 51.32237 -60.53102 36783 ft 524 kts 53°
2026-05-07 10:33 51.36841 -60.44057 36788 ft 524 kts 53°
2026-05-07 10:34 51.41437 -60.34997 36804 ft 524 kts 53°
2026-05-07 10:34 51.46001 -60.25967 36807 ft 525 kts 53°
2026-05-07 10:35 51.50599 -60.16839 36812 ft 526 kts 53°
2026-05-07 10:35 51.55191 -60.07691 36813 ft 526 kts 53°
2026-05-07 10:36 51.59789 -59.98499 36818 ft 526 kts 53°
2026-05-07 10:36 51.64379 -59.89288 36821 ft 528 kts 53°
2026-05-07 10:37 51.68973 -59.80037 36837 ft 529 kts 53°
2026-05-07 10:37 51.73531 -59.70824 36839 ft 529 kts 53°
2026-05-07 10:38 51.78110 -59.61536 36843 ft 529 kts 53°
2026-05-07 10:38 51.82690 -59.52213 36842 ft 529 kts 53°
2026-05-07 10:39 51.87260 -59.42874 36847 ft 530 kts 53°
2026-05-07 10:39 51.91812 -59.33540 36851 ft 530 kts 53°
2026-05-07 10:40 51.96367 -59.24165 36861 ft 529 kts 54°
2026-05-07 10:40 52.00903 -59.14799 36861 ft 524 kts 54°
2026-05-07 10:41 52.05396 -59.05481 36861 ft 523 kts 54°
2026-05-07 10:41 52.09882 -58.96145 36862 ft 523 kts 54°
2026-05-07 10:42 52.14356 -58.86799 36861 ft 524 kts 54°
2026-05-07 10:42 52.18832 -58.77414 36862 ft 524 kts 54°
2026-05-07 10:43 52.23274 -58.68069 36858 ft 524 kts 55°
2026-05-07 10:43 52.27736 -58.58649 36859 ft 524 kts 55°
2026-05-07 10:44 52.32192 -58.49203 36860 ft 524 kts 55°
2026-05-07 10:44 52.36646 -58.39728 36859 ft 525 kts 55°
2026-05-07 10:45 52.41087 -58.30245 36857 ft 525 kts 55°
2026-05-07 10:45 52.45517 -58.20749 36850 ft 524 kts 55°
2026-05-07 10:46 52.49948 -58.11218 36868 ft 525 kts 55°
2026-05-07 10:46 52.54368 -58.01673 36867 ft 525 kts 55°
2026-05-07 10:47 52.58758 -57.92159 36867 ft 525 kts 55°
2026-05-07 10:47 52.63165 -57.82570 36865 ft 525 kts 55°
2026-05-07 10:48 52.67567 -57.72956 36863 ft 526 kts 55°
2026-05-07 10:48 52.71964 -57.63318 36865 ft 526 kts 55°
2026-05-07 10:49 52.76363 -57.53638 36862 ft 526 kts 56°
2026-05-07 10:49 52.80723 -57.44008 36873 ft 526 kts 55°
2026-05-07 10:50 52.85102 -57.34298 36872 ft 527 kts 55°
2026-05-07 10:50 52.89476 -57.24561 36876 ft 527 kts 55°
2026-05-07 10:51 52.93845 -57.14802 36881 ft 527 kts 56°
2026-05-07 10:51 52.98209 -57.05013 36879 ft 527 kts 55°
2026-05-07 10:52 53.02565 -56.95204 36876 ft 527 kts 55°
2026-05-07 10:52 53.06909 -56.85386 36884 ft 527 kts 56°
2026-05-07 10:53 53.10948 -56.75255 37137 ft 525 kts 63°
2026-05-07 10:53 53.12703 -56.70021 37345 ft 524 kts 64°
2026-05-07 10:53 53.14437 -56.64696 37517 ft 523 kts 65°
2026-05-07 10:54 53.17857 -56.53969 37766 ft 524 kts 65°
2026-05-07 10:54 53.19559 -56.48593 37944 ft 523 kts 65°
2026-05-07 10:54 53.21253 -56.43241 38095 ft 522 kts 65°
2026-05-07 10:55 53.24081 -56.34297 38219 ft 524 kts 65°
2026-05-07 10:55 53.25786 -56.28898 38378 ft 524 kts 65°
2026-05-07 10:55 53.27482 -56.23521 38547 ft 523 kts 65°
2026-05-07 10:56 53.29175 -56.18145 38690 ft 522 kts 64°
2026-05-07 10:56 53.30862 -56.12776 38844 ft 521 kts 64°
2026-05-07 10:56 53.34232 -56.02009 38886 ft 524 kts 65°
2026-05-07 10:57 53.37602 -55.91197 38898 ft 522 kts 65°
2026-05-07 10:57 53.40955 -55.80390 38894 ft 522 kts 65°
2026-05-07 10:58 53.44291 -55.69586 38903 ft 521 kts 65°
2026-05-07 10:58 53.47588 -55.58865 38892 ft 519 kts 65°
2026-05-07 10:59 53.50889 -55.48080 38905 ft 519 kts 65°
2026-05-07 10:59 53.54181 -55.37274 38917 ft 519 kts 65°
2026-05-07 11:00 53.57465 -55.26448 38911 ft 520 kts 65°
2026-05-07 11:00 53.60740 -55.15601 38916 ft 520 kts 65°
2026-05-07 11:01 53.64007 -55.04732 38922 ft 520 kts 65°
2026-05-07 11:01 53.67267 -54.93837 38923 ft 520 kts 65°
2026-05-07 11:02 53.70515 -54.82933 38920 ft 520 kts 65°
2026-05-07 11:02 53.73731 -54.72088 38923 ft 518 kts 65°
2026-05-07 11:03 53.76947 -54.61192 38930 ft 517 kts 65°
2026-05-07 11:03 53.80149 -54.50291 38935 ft 517 kts 65°
2026-05-07 11:04 53.83344 -54.39362 38941 ft 517 kts 66°
2026-05-07 11:04 53.86524 -54.28437 38941 ft 517 kts 66°
2026-05-07 11:05 53.89696 -54.17490 38923 ft 516 kts 66°
2026-05-07 11:05 53.92852 -54.06545 38947 ft 517 kts 66°
2026-05-07 11:06 53.96001 -53.95572 38949 ft 517 kts 66°
2026-05-07 11:06 53.99124 -53.84641 38950 ft 517 kts 66°
2026-05-07 11:07 54.02252 -53.73641 38957 ft 516 kts 66°
2026-05-07 11:07 54.05370 -53.62624 38961 ft 516 kts 66°
2026-05-07 11:08 54.08480 -53.51580 38961 ft 516 kts 66°
2026-05-07 11:08 54.11572 -53.40553 38961 ft 516 kts 66°
2026-05-07 11:09 54.14656 -53.29498 38963 ft 516 kts 66°
2026-05-07 11:09 54.17710 -53.18499 38969 ft 515 kts 66°
2026-05-07 11:10 54.20766 -53.07442 38971 ft 515 kts 66°
2026-05-07 11:10 54.23815 -52.96352 38975 ft 515 kts 66°
2026-05-07 11:11 54.26857 -52.85237 38970 ft 516 kts 66°
2026-05-07 11:11 54.29868 -52.74185 38977 ft 515 kts 66°
2026-05-07 11:12 54.32880 -52.63073 38979 ft 514 kts 66°
2026-05-07 11:12 54.35884 -52.51938 38979 ft 514 kts 66°
2026-05-07 11:13 54.38874 -52.40798 38982 ft 514 kts 67°
2026-05-07 11:13 54.41854 -52.29643 38991 ft 514 kts 67°
2026-05-07 11:14 54.44822 -52.18478 38990 ft 513 kts 67°
2026-05-07 11:14 54.47774 -52.07319 38990 ft 513 kts 67°
2026-05-07 11:15 54.50694 -51.96224 38985 ft 513 kts 67°
2026-05-07 11:15 54.53632 -51.85005 38962 ft 513 kts 67°
2026-05-07 11:16 54.56554 -51.73795 38995 ft 511 kts 67°
2026-05-07 11:16 54.59456 -51.62605 38999 ft 511 kts 67°
2026-05-07 11:17 54.62326 -51.51481 38998 ft 511 kts 67°
2026-05-07 11:17 54.65204 -51.40273 38998 ft 511 kts 67°
2026-05-07 11:18 54.68075 -51.29034 39007 ft 511 kts 68°
2026-05-07 11:18 54.70930 -51.17801 39007 ft 510 kts 68°
2026-05-07 11:19 54.73779 -51.06536 39006 ft 510 kts 68°
2026-05-07 11:19 54.76615 -50.95269 39010 ft 510 kts 68°
2026-05-07 11:20 54.79436 -50.83999 39012 ft 510 kts 68°
2026-05-07 11:20 54.82249 -50.72704 39015 ft 510 kts 68°
2026-05-07 11:21 54.85033 -50.61467 38983 ft 509 kts 68°
2026-05-07 11:21 54.87821 -50.50162 39018 ft 508 kts 68°
2026-05-07 11:22 54.90591 -50.38866 39023 ft 508 kts 68°
2026-05-07 11:22 54.93349 -50.27564 39023 ft 508 kts 68°
2026-05-07 11:23 54.96098 -50.16237 39026 ft 508 kts 68°
2026-05-07 11:23 54.98837 -50.04895 39026 ft 508 kts 68°
2026-05-07 11:24 55.00979 -49.93221 39028 ft 506 kts 77°
2026-05-07 11:24 55.02729 -49.81315 39031 ft 506 kts 78°
2026-05-07 11:25 55.04402 -49.69398 39036 ft 506 kts 78°
2026-05-07 11:25 55.06064 -49.57480 39032 ft 506 kts 78°
2026-05-07 11:26 55.07715 -49.45628 39038 ft 506 kts 78°
2026-05-07 11:26 55.09368 -49.33707 39036 ft 505 kts 78°
2026-05-07 11:27 55.11011 -49.21777 39044 ft 505 kts 78°
2026-05-07 11:27 55.12639 -49.09844 39047 ft 505 kts 78°
2026-05-07 11:28 55.14255 -48.97910 39052 ft 504 kts 78°
2026-05-07 11:28 55.15860 -48.85960 39050 ft 504 kts 78°
2026-05-07 11:29 55.17440 -48.74092 39057 ft 504 kts 78°
2026-05-07 11:29 55.19023 -48.62113 39063 ft 504 kts 78°
2026-05-07 11:30 55.20592 -48.50140 39064 ft 504 kts 78°
2026-05-07 11:30 55.22143 -48.38203 39059 ft 502 kts 78°
2026-05-07 11:31 55.23683 -48.26262 39067 ft 502 kts 78°
2026-05-07 11:31 55.25199 -48.14402 39076 ft 502 kts 78°
2026-05-07 11:32 55.27466 -47.96473 39079 ft 502 kts 78°
2026-05-07 11:33 55.28966 -47.84489 39073 ft 502 kts 78°
2026-05-07 11:33 55.30449 -47.72532 39081 ft 501 kts 78°
2026-05-07 11:34 55.31920 -47.60573 39083 ft 501 kts 78°
2026-05-07 11:34 55.33379 -47.48610 39083 ft 500 kts 78°
2026-05-07 11:35 55.34814 -47.36740 39085 ft 499 kts 78°
2026-05-07 11:35 55.36243 -47.24808 39093 ft 499 kts 78°
2026-05-07 11:36 55.37661 -47.12866 39095 ft 499 kts 78°
2026-05-07 11:36 55.39070 -47.00897 39086 ft 499 kts 78°
2026-05-07 11:37 55.40457 -46.89004 39098 ft 499 kts 78°
2026-05-07 11:37 55.41841 -46.77025 39100 ft 499 kts 78°
2026-05-07 11:38 55.43213 -46.65045 39102 ft 499 kts 78°
2026-05-07 11:38 55.44573 -46.53058 39104 ft 499 kts 78°
2026-05-07 11:39 55.45922 -46.41066 39110 ft 499 kts 78°
2026-05-07 11:39 55.47249 -46.29150 39111 ft 498 kts 78°
2026-05-07 11:40 55.48575 -46.17128 39099 ft 498 kts 79°
2026-05-07 11:40 55.49887 -46.05116 39114 ft 499 kts 79°
2026-05-07 11:41 55.51188 -45.93094 39122 ft 499 kts 79°
2026-05-07 11:41 55.52476 -45.81069 39123 ft 498 kts 79°
2026-05-07 11:42 55.53744 -45.69119 39123 ft 498 kts 79°
2026-05-07 11:42 55.55008 -45.57087 39128 ft 498 kts 78°
2026-05-07 11:43 55.56261 -45.45042 39130 ft 497 kts 78°
2026-05-07 11:43 55.57491 -45.33098 39143 ft 497 kts 79°
2026-05-07 11:44 55.58518 -45.23032 39146 ft 497 kts 78°
2026-05-07 11:44 55.59931 -45.09044 39152 ft 498 kts 78°
2026-05-07 11:45 55.60942 -44.98927 39151 ft 498 kts 78°
2026-05-07 11:45 55.62137 -44.86847 39150 ft 498 kts 79°
2026-05-07 11:46 55.63313 -44.74840 39165 ft 498 kts 79°
2026-05-07 11:46 55.64485 -44.62747 39163 ft 498 kts 79°
2026-05-07 11:47 55.65644 -44.50644 39167 ft 498 kts 78°
2026-05-07 11:47 55.66792 -44.38541 39176 ft 498 kts 78°
2026-05-07 11:48 55.67929 -44.26428 39181 ft 498 kts 78°
2026-05-07 11:48 55.69053 -44.14310 39180 ft 498 kts 78°
2026-05-07 11:49 55.70160 -44.02239 39187 ft 498 kts 78°
2026-05-07 11:49 55.71259 -43.90116 39192 ft 498 kts 79°
2026-05-07 11:50 55.72347 -43.77982 39195 ft 498 kts 79°
2026-05-07 11:50 55.73424 -43.65822 39198 ft 498 kts 79°
2026-05-07 11:51 55.74489 -43.53663 39200 ft 498 kts 78°
2026-05-07 11:51 55.75539 -43.41522 39203 ft 497 kts 79°
2026-05-07 11:52 55.76575 -43.29402 39228 ft 497 kts 78°
2026-05-07 11:52 55.77602 -43.17246 39216 ft 497 kts 78°
2026-05-07 11:53 55.78612 -43.05150 39216 ft 498 kts 78°
2026-05-07 11:53 55.79616 -42.92969 39222 ft 498 kts 79°
2026-05-07 11:54 55.80607 -42.80786 39222 ft 498 kts 79°
2026-05-07 11:54 55.81587 -42.68598 39233 ft 498 kts 79°
2026-05-07 11:55 55.82554 -42.56401 39232 ft 498 kts 78°
2026-05-07 11:55 55.83508 -42.44210 39236 ft 497 kts 78°
2026-05-07 11:56 55.84443 -42.32113 39238 ft 496 kts 78°
2026-05-07 11:56 55.85372 -42.19931 39247 ft 497 kts 78°
2026-05-07 11:57 55.86289 -42.07748 39245 ft 497 kts 79°
2026-05-07 11:57 55.87194 -41.95550 39270 ft 497 kts 78°
2026-05-07 11:58 55.88089 -41.83321 39253 ft 497 kts 78°
2026-05-07 11:58 55.88971 -41.71099 39252 ft 498 kts 78°
2026-05-07 11:59 55.89841 -41.58863 39259 ft 498 kts 79°
2026-05-07 11:59 55.90699 -41.46618 39263 ft 497 kts 78°
2026-05-07 12:00 55.91543 -41.34398 39272 ft 496 kts 78°
2026-05-07 12:00 55.92371 -41.22238 39275 ft 498 kts 78°
2026-05-07 12:01 55.93195 -41.09973 39277 ft 499 kts 78°
2026-05-07 12:01 55.94007 -40.97667 39276 ft 499 kts 78°
2026-05-07 12:02 55.94805 -40.85384 39281 ft 499 kts 78°
2026-05-07 12:02 55.95592 -40.73097 39282 ft 499 kts 78°
2026-05-07 12:03 55.96366 -40.60795 39301 ft 499 kts 78°
2026-05-07 12:03 55.97133 -40.48436 39295 ft 501 kts 78°
2026-05-07 12:04 55.97883 -40.36121 39293 ft 501 kts 78°
2026-05-07 12:04 55.98624 -40.23736 39299 ft 501 kts 78°
2026-05-07 12:05 55.99353 -40.11351 39302 ft 501 kts 78°
2026-05-07 12:05 56.00249 -39.99051 39307 ft 495 kts 71°
2026-05-07 12:06 56.01830 -39.87075 39306 ft 495 kts 69°
2026-05-07 12:06 56.03515 -39.75224 39312 ft 495 kts 69°
2026-05-07 12:07 56.05217 -39.63293 39310 ft 495 kts 69°
2026-05-07 12:07 56.06901 -39.51325 39317 ft 495 kts 69°
2026-05-07 12:08 56.08563 -39.39356 39314 ft 496 kts 70°
2026-05-07 12:08 56.10210 -39.27383 39321 ft 494 kts 69°
2026-05-07 12:09 56.11839 -39.15436 39326 ft 492 kts 69°
2026-05-07 12:09 56.13445 -39.03590 39325 ft 492 kts 69°
2026-05-07 12:10 56.15052 -38.91648 39330 ft 492 kts 69°
2026-05-07 12:10 56.16646 -38.79699 39365 ft 492 kts 70°
2026-05-07 12:11 56.18225 -38.67755 39338 ft 491 kts 70°
2026-05-07 12:11 56.19791 -38.55819 39337 ft 490 kts 70°
2026-05-07 12:12 56.21343 -38.43896 39330 ft 490 kts 70°
2026-05-07 12:12 56.22887 -38.31942 39335 ft 491 kts 70°
2026-05-07 12:13 56.24420 -38.19970 39372 ft 491 kts 70°
2026-05-07 12:13 56.25931 -38.08072 39336 ft 491 kts 70°
2026-05-07 12:14 56.27440 -37.96081 39344 ft 492 kts 71°
2026-05-07 12:14 56.28939 -37.84071 39340 ft 492 kts 71°
2026-05-07 12:15 56.30425 -37.72060 39341 ft 491 kts 71°
2026-05-07 12:15 56.31897 -37.60063 39341 ft 491 kts 71°
2026-05-07 12:16 56.33359 -37.48044 39343 ft 491 kts 71°
2026-05-07 12:16 56.34810 -37.36014 39344 ft 491 kts 71°
2026-05-07 12:17 56.36248 -37.23988 39344 ft 491 kts 71°
2026-05-07 12:17 56.37667 -37.12003 39346 ft 491 kts 71°
2026-05-07 12:18 56.39085 -36.99932 39378 ft 491 kts 71°
2026-05-07 12:18 56.40494 -36.87827 39347 ft 493 kts 71°
2026-05-07 12:19 56.41891 -36.75711 39342 ft 493 kts 71°
2026-05-07 12:19 56.43277 -36.63570 39344 ft 493 kts 72°
2026-05-07 12:20 56.44653 -36.51408 39346 ft 493 kts 72°
2026-05-07 12:20 56.46015 -36.39257 39379 ft 493 kts 72°
2026-05-07 12:21 56.47359 -36.27206 39345 ft 489 kts 72°
2026-05-07 12:21 56.48678 -36.15172 39346 ft 487 kts 72°
2026-05-07 12:22 56.49994 -36.03089 39346 ft 487 kts 72°
2026-05-07 12:22 56.51285 -35.91122 39346 ft 487 kts 72°
2026-05-07 12:23 56.52575 -35.79060 39346 ft 488 kts 72°
2026-05-07 12:23 56.53849 -35.67015 39346 ft 485 kts 73°
2026-05-07 12:24 56.55103 -35.55033 39347 ft 483 kts 73°
2026-05-07 12:24 56.56347 -35.43061 39346 ft 483 kts 73°
2026-05-07 12:25 56.57578 -35.31083 39347 ft 483 kts 73°
2026-05-07 12:25 56.58799 -35.19086 39346 ft 483 kts 73°
2026-05-07 12:26 56.60007 -35.07089 39349 ft 482 kts 73°
2026-05-07 12:26 56.61197 -34.95135 39346 ft 481 kts 73°
2026-05-07 12:27 56.62377 -34.83183 39348 ft 481 kts 74°
2026-05-07 12:27 56.63539 -34.71293 39356 ft 481 kts 74°
2026-05-07 12:28 56.64698 -34.59297 39351 ft 481 kts 74°
2026-05-07 12:28 56.65843 -34.47315 39353 ft 481 kts 74°
2026-05-07 12:29 56.66972 -34.35381 39349 ft 482 kts 74°
2026-05-07 12:29 56.68097 -34.23358 39348 ft 482 kts 74°
2026-05-07 12:30 56.69211 -34.11322 39348 ft 482 kts 74°
2026-05-07 12:30 56.70306 -33.99360 39345 ft 482 kts 74°
2026-05-07 12:31 56.71396 -33.87319 39350 ft 483 kts 74°
2026-05-07 12:31 56.72482 -33.75198 39349 ft 485 kts 74°
2026-05-07 12:32 56.73556 -33.63064 39351 ft 485 kts 75°
2026-05-07 12:32 56.74618 -33.50911 39352 ft 485 kts 75°
2026-05-07 12:33 56.76015 -33.34715 39348 ft 486 kts 75°
2026-05-07 12:33 56.77220 -33.20536 39347 ft 487 kts 75°
2026-05-07 12:34 56.78246 -33.08306 39344 ft 488 kts 75°
2026-05-07 12:34 56.79092 -32.98108 39344 ft 488 kts 75°
2026-05-07 12:35 56.80096 -32.85862 39344 ft 488 kts 75°
2026-05-07 12:35 56.81089 -32.73601 39344 ft 488 kts 75°
2026-05-07 12:36 56.82072 -32.61308 39345 ft 488 kts 75°
2026-05-07 12:36 56.83034 -32.49113 39341 ft 488 kts 76°
2026-05-07 12:37 56.83992 -32.36827 39341 ft 488 kts 76°
2026-05-07 12:37 56.84937 -32.24536 39336 ft 488 kts 76°
2026-05-07 12:38 56.85871 -32.12225 39336 ft 488 kts 76°
2026-05-07 12:38 56.86792 -31.99919 39348 ft 488 kts 76°
2026-05-07 12:39 56.87699 -31.87631 39335 ft 488 kts 76°
2026-05-07 12:39 56.88594 -31.75337 39337 ft 488 kts 76°
2026-05-07 12:40 56.89478 -31.63034 39331 ft 488 kts 76°
2026-05-07 12:40 56.90343 -31.50820 39330 ft 488 kts 76°
2026-05-07 12:41 56.91200 -31.38523 39337 ft 485 kts 77°
2026-05-07 12:41 56.92041 -31.26284 39323 ft 484 kts 77°
2026-05-07 12:42 56.92871 -31.14045 39326 ft 484 kts 77°
2026-05-07 12:42 56.93690 -31.01791 39327 ft 484 kts 77°
2026-05-07 12:43 56.94496 -30.89538 39321 ft 484 kts 77°
2026-05-07 12:43 56.95285 -30.77349 39329 ft 485 kts 77°
2026-05-07 12:44 56.96068 -30.65064 39322 ft 485 kts 77°
2026-05-07 12:44 56.96839 -30.52779 39325 ft 485 kts 77°
2026-05-07 12:45 56.97597 -30.40493 39319 ft 484 kts 78°
2026-05-07 12:45 56.98343 -30.28215 39316 ft 484 kts 78°
2026-05-07 12:46 56.99076 -30.15939 39338 ft 485 kts 78°
2026-05-07 12:46 56.99800 -30.03630 39314 ft 485 kts 78°
2026-05-07 12:47 57.00445 -29.91390 39308 ft 487 kts 80°
2026-05-07 12:47 57.00895 -29.78980 39306 ft 487 kts 81°
2026-05-07 12:48 57.01317 -29.66548 39303 ft 487 kts 81°
2026-05-07 12:48 57.01756 -29.54131 39334 ft 487 kts 81°
2026-05-07 12:49 57.02199 -29.41703 39306 ft 488 kts 81°
2026-05-07 12:49 57.02633 -29.29272 39307 ft 488 kts 81°
2026-05-07 12:50 57.03055 -29.16831 39293 ft 488 kts 81°
2026-05-07 12:50 57.03462 -29.04404 39300 ft 488 kts 82°
2026-05-07 12:51 57.03858 -28.91955 39296 ft 488 kts 82°
2026-05-07 12:51 57.04238 -28.79609 39291 ft 488 kts 82°
2026-05-07 12:52 57.04609 -28.67140 39292 ft 488 kts 82°
2026-05-07 12:52 57.04968 -28.54677 39293 ft 488 kts 82°
2026-05-07 12:53 57.05314 -28.42218 39287 ft 488 kts 82°
2026-05-07 12:53 57.05647 -28.29810 39287 ft 488 kts 83°
2026-05-07 12:54 57.05968 -28.17353 39282 ft 488 kts 83°
2026-05-07 12:54 57.06277 -28.04882 39280 ft 489 kts 83°
2026-05-07 12:55 57.06574 -27.92411 39280 ft 489 kts 83°
2026-05-07 12:55 57.06859 -27.79918 39278 ft 489 kts 83°
2026-05-07 12:56 57.07131 -27.67431 39263 ft 489 kts 83°
2026-05-07 12:56 57.07392 -27.54935 39271 ft 489 kts 84°
2026-05-07 12:57 57.07639 -27.42434 39263 ft 489 kts 84°
2026-05-07 12:57 57.07874 -27.29985 39263 ft 489 kts 84°
2026-05-07 12:58 57.08096 -27.17492 39257 ft 489 kts 84°
2026-05-07 12:58 57.08307 -27.04981 39257 ft 489 kts 84°
2026-05-07 12:59 57.08505 -26.92460 39273 ft 490 kts 84°
2026-05-07 12:59 57.08691 -26.79941 39252 ft 489 kts 85°
2026-05-07 13:00 57.08863 -26.67443 39249 ft 489 kts 85°
2026-05-07 13:00 57.09024 -26.54939 39246 ft 489 kts 85°
2026-05-07 13:01 57.09171 -26.42495 39238 ft 489 kts 85°
2026-05-07 13:01 57.09307 -26.29986 39233 ft 489 kts 85°
2026-05-07 13:02 57.09430 -26.17479 39238 ft 489 kts 86°
2026-05-07 13:02 57.09541 -26.04964 39228 ft 489 kts 86°
2026-05-07 13:03 57.09639 -25.92451 39231 ft 489 kts 86°
2026-05-07 13:03 57.09725 -25.79933 39226 ft 489 kts 86°
2026-05-07 13:04 57.09798 -25.67488 39228 ft 489 kts 86°
2026-05-07 13:04 57.09859 -25.54961 39220 ft 489 kts 86°
2026-05-07 13:05 57.09907 -25.42465 39214 ft 488 kts 86°
2026-05-07 13:05 57.09943 -25.29971 39210 ft 488 kts 87°
2026-05-07 13:06 57.09967 -25.17491 39213 ft 488 kts 87°
2026-05-07 13:06 57.09978 -25.04994 39207 ft 488 kts 87°
2026-05-07 13:07 57.09977 -24.92584 39205 ft 488 kts 87°
2026-05-07 13:07 57.09963 -24.80079 39198 ft 489 kts 87°
2026-05-07 13:08 57.09937 -24.67567 39200 ft 489 kts 87°
2026-05-07 13:08 57.09899 -24.55047 39199 ft 489 kts 88°
2026-05-07 13:09 57.09847 -24.42529 39198 ft 489 kts 88°
2026-05-07 13:09 57.09784 -24.30020 39198 ft 489 kts 88°
2026-05-07 13:10 57.09708 -24.17525 39192 ft 488 kts 88°
2026-05-07 13:10 57.09620 -24.05117 39183 ft 488 kts 88°
2026-05-07 13:11 57.09520 -23.92620 39184 ft 488 kts 88°
2026-05-07 13:11 57.09407 -23.80120 39182 ft 488 kts 88°
2026-05-07 13:12 57.09281 -23.67632 39200 ft 489 kts 89°
2026-05-07 13:12 57.09143 -23.55130 39170 ft 488 kts 89°
2026-05-07 13:13 57.08993 -23.42657 39170 ft 488 kts 89°
2026-05-07 13:13 57.08831 -23.30178 39170 ft 489 kts 89°
2026-05-07 13:14 57.08655 -23.17670 39165 ft 489 kts 89°
2026-05-07 13:14 57.08468 -23.05244 39164 ft 489 kts 89°
2026-05-07 13:15 57.08269 -22.92764 39162 ft 488 kts 90°
2026-05-07 13:15 57.08056 -22.80275 39159 ft 488 kts 90°
2026-05-07 13:16 57.07832 -22.67801 39155 ft 488 kts 90°
2026-05-07 13:16 57.07595 -22.55323 39144 ft 488 kts 90°
2026-05-07 13:17 57.07345 -22.42855 39142 ft 488 kts 90°
2026-05-07 13:17 57.07084 -22.30379 39138 ft 488 kts 90°
2026-05-07 13:18 57.06809 -22.17886 39146 ft 489 kts 91°
2026-05-07 13:18 57.06522 -22.05397 39136 ft 490 kts 91°
2026-05-07 13:19 57.06222 -21.92879 39120 ft 490 kts 91°
2026-05-07 13:19 57.05909 -21.80361 39127 ft 490 kts 91°
2026-05-07 13:20 57.05586 -21.67928 39122 ft 490 kts 91°
2026-05-07 13:20 57.05248 -21.55391 39122 ft 491 kts 91°
2026-05-07 13:21 57.04903 -21.43076 39115 ft 492 kts 92°
2026-05-07 13:21 57.04539 -21.30522 39114 ft 492 kts 92°
2026-05-07 13:22 57.04164 -21.18001 39105 ft 491 kts 92°
2026-05-07 13:22 57.03778 -21.05555 39111 ft 491 kts 92°
2026-05-07 13:23 57.03377 -20.92988 39096 ft 492 kts 92°
2026-05-07 13:23 57.02963 -20.80439 39098 ft 493 kts 92°
2026-05-07 13:24 57.02609 -20.70008 39086 ft 493 kts 92°
2026-05-07 13:24 57.02172 -20.57466 39085 ft 492 kts 92°
2026-05-07 13:25 57.01722 -20.44906 39086 ft 492 kts 93°
2026-05-07 13:25 57.01258 -20.32335 39082 ft 493 kts 93°
2026-05-07 13:26 57.00786 -20.19862 39078 ft 493 kts 93°
2026-05-07 13:26 57.00299 -20.07321 39072 ft 493 kts 93°
2026-05-07 13:27 56.99076 -19.94970 39070 ft 493 kts 105°
2026-05-07 13:27 56.97065 -19.82927 39065 ft 494 kts 108°
2026-05-07 13:28 56.94917 -19.70960 39062 ft 494 kts 108°
2026-05-07 13:28 56.92751 -19.58988 39041 ft 494 kts 108°
2026-05-07 13:29 56.90593 -19.47032 39050 ft 495 kts 109°
2026-05-07 13:29 56.88431 -19.35073 39051 ft 494 kts 109°
2026-05-07 13:30 56.86262 -19.23144 39043 ft 495 kts 109°
2026-05-07 13:30 56.84092 -19.11291 39040 ft 494 kts 109°
2026-05-07 13:31 56.81899 -18.99388 39032 ft 495 kts 109°
2026-05-07 13:31 56.79692 -18.87488 39023 ft 494 kts 109°
2026-05-07 13:32 56.77474 -18.75598 39008 ft 496 kts 110°
2026-05-07 13:32 56.75244 -18.63725 39017 ft 495 kts 110°
2026-05-07 13:33 56.72997 -18.51842 39016 ft 496 kts 110°
2026-05-07 13:33 56.70746 -18.39993 39001 ft 495 kts 110°
2026-05-07 13:34 56.67344 -18.22232 39000 ft 495 kts 110°
2026-05-07 13:35 56.65060 -18.10420 38989 ft 496 kts 110°
2026-05-07 13:35 56.62779 -17.98682 38990 ft 495 kts 110°
2026-05-07 13:36 56.60474 -17.86890 38994 ft 496 kts 111°
2026-05-07 13:36 56.58157 -17.75104 38993 ft 495 kts 111°
2026-05-07 13:37 56.55827 -17.63328 38994 ft 496 kts 111°
2026-05-07 13:37 56.53492 -17.51583 38977 ft 495 kts 111°
2026-05-07 13:38 56.51139 -17.39830 38982 ft 496 kts 111°
2026-05-07 13:38 56.48787 -17.28156 38972 ft 496 kts 112°
2026-05-07 13:39 56.46408 -17.16419 38974 ft 496 kts 111°
2026-05-07 13:39 56.44026 -17.04729 38950 ft 495 kts 112°
2026-05-07 13:40 56.41626 -16.93025 38963 ft 495 kts 112°
2026-05-07 13:40 56.39237 -16.81436 38963 ft 496 kts 112°
2026-05-07 13:41 56.36816 -16.69760 38951 ft 496 kts 112°
2026-05-07 13:41 56.34390 -16.58130 38956 ft 496 kts 112°
2026-05-07 13:42 56.31948 -16.46492 38935 ft 495 kts 112°
2026-05-07 13:42 56.29500 -16.34886 38926 ft 496 kts 112°
2026-05-07 13:43 56.27038 -16.23283 38927 ft 495 kts 113°
2026-05-07 13:43 56.24573 -16.11729 38926 ft 495 kts 113°
2026-05-07 13:44 56.22109 -16.00252 38927 ft 494 kts 113°
2026-05-07 13:44 56.19628 -15.88752 38925 ft 495 kts 113°